Location: Unspecified
(0.0000°N, 0.0000°E)
Time: 07:40:17
(UTC+00:00)

DMSP 5D-3 F18 (USA 210) - Pass Details

Date: 23 February 2019
Orbit: 841 x 856 km, 98.6° (Epoch: 24 March)

Event Time Altitude Azimuth Distance (km) Brightness Sun altitude
Rises 04:32:38 0° 39° (NE) 3,409 8.2 -24.8°
Reaches altitude 10° 04:35:32 10° 54° (NE) 2,474 7.7 -24.1°
Maximum altitude 04:39:38 22° 103° (ESE) 1,793 7.2 -23.1°
Drops below altitude 10° 04:43:43 10° 151° (SSE) 2,474 7.6 -22.1°
Sets 04:46:36 0° 166° (SSE) 3,409 8.2 -21.4°
